Date String (YYYY-MM-DD hh:mm:ss) UTC,Instrument flags,Ambient pressure (hPa),Sample flow (lpm),Bypass flow (lpm),Sample temperature (°C),Ambient temperature (°C),ASC tube jacket temperature (°C),LED temperature (°C),Box temperature (°C),Sample RH (%),Span deviation,Mass concentration (μg/m³),Mass concentration (μg/m³),Mass concentration (μg/m³)
DateTimeUTC,F1_M11,P_M11,Q1_M11,Q2_M11,T1_M11,T2_M11,T3_M11,T4_M11,T5_M11,U1_M11,ZSPAN_M11,X2_M11,X0_M11,X1_M11
2022-07-05 12:00:00,,0826.2,5.01,0.00,30.0,28.9,00.0,38.7,31.8,22.2,0000.0,0002.69,0004.08,0002.01
2022-07-05 12:01:00,,0826.2,5.00,0.00,30.0,28.9,00.0,38.7,31.9,22.5,0000.0,0002.72,0004.10,0002.04
2022-07-05 12:02:00,,0826.2,4.99,0.00,30.0,28.9,00.0,38.7,31.9,22.4,0000.0,0002.73,0004.12,0002.07
2022-07-05 12:03:00,,0826.2,5.00,0.00,30.0,28.9,00.0,38.7,31.9,22.3,0000.0,0002.75,0004.15,0002.09
2022-07-05 12:04:00,,0826.2,5.00,0.00,30.0,29.0,00.0,38.8,31.9,22.3,0000.0,0002.77,0004.11,0002.11
2022-07-05 12:05:00,,0826.3,5.00,0.00,30.1,29.0,00.0,38.8,31.9,22.1,0000.0,0002.80,0004.17,0002.16
2022-07-05 12:06:00,,0826.3,5.00,0.00,30.1,29.0,00.0,38.8,32.0,22.3,0000.0,0002.88,0004.22,0002.25
2022-07-05 12:07:00,,0826.3,5.01,0.00,30.1,29.0,00.0,38.8,32.0,22.6,0000.0,0003.18,0004.69,0002.54
2022-07-05 12:08:00,,0826.3,4.99,0.00,30.1,29.0,00.0,38.8,32.0,22.6,0000.0,0003.39,0005.15,0002.90
2022-07-05 12:09:00,,0826.3,5.00,0.00,30.1,29.1,00.0,38.8,32.0,22.6,0000.0,0003.59,0005.68,0003.19
2022-07-05 12:10:00,,0826.4,5.00,0.00,30.1,29.1,00.0,38.8,32.0,22.6,0000.0,0003.77,0006.07,0003.37
2022-07-05 12:11:00,,0826.4,5.00,0.00,30.1,28.9,00.0,38.8,32.0,22.7,0000.0,0003.96,0006.50,0003.55
2022-07-05 12:12:00,,0826.4,5.01,0.00,30.1,28.1,00.0,38.8,31.9,22.9,0000.0,0004.12,0006.98,0003.70
2022-07-05 12:13:00,,0826.4,5.01,0.00,30.1,27.7,00.0,38.8,31.8,22.9,0000.0,0004.25,0007.32,0003.81
2022-07-05 12:14:00,,0826.3,4.99,0.00,30.0,27.6,00.0,38.8,31.7,22.7,0000.0,0004.37,0007.48,0003.92
2022-07-05 12:15:00,,0826.3,5.00,0.00,29.9,27.7,00.0,38.7,31.6,22.6,0000.0,0004.49,0007.66,0004.01
2022-07-05 12:16:00,,0826.4,5.00,0.00,29.9,27.8,00.0,38.7,31.5,22.5,0000.0,0004.57,0007.83,0004.08
2022-07-05 12:17:00,,0826.4,5.00,0.00,29.8,27.9,00.0,38.7,31.6,22.4,0000.0,0004.56,0007.86,0004.08
2022-07-05 12:18:00,,0826.4,5.00,0.00,29.8,28.0,00.0,38.7,31.6,22.3,0000.0,0004.43,0007.73,0003.98
2022-07-05 12:19:00,,0826.4,4.99,0.00,29.8,28.1,00.0,38.7,31.6,22.3,0000.0,0004.28,0007.57,0003.84
2022-07-05 12:20:00,,0826.4,5.00,0.00,29.8,28.2,00.0,38.7,31.6,22.3,0000.0,0004.13,0007.42,0003.69
2022-07-05 12:21:00,,0826.4,5.00,0.00,29.8,28.3,00.0,38.7,31.6,22.2,0000.0,0003.99,0007.35,0003.56
2022-07-05 12:22:00,,0826.5,5.00,0.00,29.8,28.4,00.0,38.7,31.7,22.2,0000.0,0003.88,0007.16,0003.48
2022-07-05 12:23:00,,0826.5,5.00,0.00,29.8,28.5,00.0,38.7,31.7,22.2,0000.0,0003.82,0007.22,0003.40
2022-07-05 12:24:00,,0826.5,5.01,0.00,29.9,28.6,00.0,38.7,31.7,22.2,0000.0,0003.74,0007.08,0003.35
2022-07-05 12:25:00,,0826.5,5.00,0.00,29.9,28.6,00.0,38.7,31.7,22.2,0000.0,0003.68,0006.88,0003.31
2022-07-05 12:26:00,,0826.5,5.00,0.00,29.9,28.7,00.0,38.7,31.7,22.3,0000.0,0003.62,0006.70,0003.27
2022-07-05 12:27:00,,0826.5,5.00,0.00,29.9,28.7,00.0,38.7,31.7,22.2,0000.0,0003.58,0006.41,0003.24
2022-07-05 12:28:00,,0826.5,5.00,0.00,29.9,28.8,00.0,38.7,31.7,22.4,0000.0,0003.58,0006.34,0003.24
2022-07-05 12:29:00,,0826.5,5.00,0.00,29.9,28.8,00.0,38.7,31.8,22.5,0000.0,0003.56,0006.26,0003.23
2022-07-05 12:30:00,,0826.5,5.00,0.00,30.0,28.8,00.0,38.7,31.8,22.5,0000.0,0003.54,0006.23,0003.21
2022-07-05 12:31:00,,0826.5,5.01,0.00,30.0,28.9,00.0,38.7,31.9,22.2,0000.0,0003.52,0006.11,0003.20
2022-07-05 12:32:00,,0826.5,5.00,0.00,30.0,28.9,00.0,38.7,31.9,22.6,0000.0,0003.52,0005.89,0003.18
2022-07-05 12:33:00,,0826.5,5.00,0.00,30.0,29.0,00.0,38.7,31.9,22.9,0000.0,0003.48,0005.91,0003.11
2022-07-05 12:34:00,,0826.5,5.00,0.00,30.0,29.0,00.0,38.8,31.9,22.9,0000.0,0003.43,0005.68,0003.05
2022-07-05 12:35:00,,0826.5,5.01,0.00,30.0,29.0,00.0,38.8,31.9,22.7,0000.0,0003.42,0006.60,0002.99
2022-07-05 12:36:00,,0826.5,5.01,0.00,30.1,29.1,00.0,38.8,32.0,22.5,0000.0,0003.40,0006.58,0002.94
2022-07-05 12:37:00,,0826.5,4.99,0.00,30.1,29.1,00.0,38.8,32.0,22.2,0000.0,0003.42,0006.76,0002.94
2022-07-05 12:38:00,,0826.5,5.00,0.00,30.1,29.1,00.0,38.8,32.0,22.2,0000.0,0003.47,0006.96,0002.98
2022-07-05 12:39:00,,0826.5,5.00,0.00,30.1,29.1,00.0,38.8,32.0,22.2,0000.0,0003.53,0007.15,0003.05
2022-07-05 12:40:00,,0826.5,4.99,0.00,30.1,28.9,00.0,38.8,32.0,22.3,0000.0,0003.60,0007.29,0003.11
2022-07-05 12:41:00,,0826.5,4.99,0.00,30.1,28.2,00.0,38.8,31.9,22.2,0000.0,0003.65,0007.40,0003.16
2022-07-05 12:42:00,,0826.5,5.00,0.00,30.1,27.9,00.0,38.8,31.8,22.2,0000.0,0003.71,0007.64,0003.20
2022-07-05 12:43:00,,0826.5,5.01,0.00,30.0,27.9,00.0,38.8,31.7,22.2,0000.0,0003.73,0007.62,0003.23
2022-07-05 12:44:00,,0826.5,5.00,0.00,30.0,28.0,00.0,38.8,31.7,22.2,0000.0,0003.76,0007.58,0003.28
2022-07-05 12:45:00,,0826.5,5.00,0.00,29.9,28.1,00.0,38.7,31.7,22.3,0000.0,0003.81,0007.67,0003.33
2022-07-05 12:46:00,,0826.5,5.00,0.00,29.9,28.2,00.0,38.7,31.7,22.2,0000.0,0003.86,0007.12,0003.37
2022-07-05 12:47:00,,0826.5,4.99,0.00,29.9,28.3,00.0,38.7,31.7,22.2,0000.0,0003.92,0007.34,0003.40
2022-07-05 12:48:00,,0826.5,4.99,0.00,29.9,28.4,00.0,38.7,31.7,22.3,0000.0,0003.95,0007.41,0003.43
2022-07-05 12:49:00,,0826.5,5.01,0.00,29.9,28.5,00.0,38.7,31.8,22.2,0000.0,0003.97,0007.44,0003.45
2022-07-05 12:50:00,,0826.5,5.01,0.00,29.9,28.6,00.0,38.7,31.7,22.1,0000.0,0003.96,0007.42,0003.46
2022-07-05 12:51:00,,0826.5,5.00,0.00,29.9,28.7,00.0,38.7,31.8,22.0,0000.0,0003.94,0007.40,0003.46
2022-07-05 12:52:00,,0826.5,5.00,0.00,30.0,28.7,00.0,38.7,31.8,22.0,0000.0,0003.95,0007.38,0003.46
2022-07-05 12:53:00,,0826.5,5.00,0.00,30.0,28.8,00.0,38.7,31.8,22.1,0000.0,0003.91,0007.03,0003.44
2022-07-05 12:54:00,,0826.6,5.01,0.00,30.0,28.8,00.0,38.7,31.9,22.0,0000.0,0003.90,0006.95,0003.45
2022-07-05 12:55:00,,0826.6,5.00,0.00,30.0,28.9,00.0,38.8,31.9,22.0,0000.0,0003.93,0007.32,0003.46
2022-07-05 12:56:00,,0826.5,5.00,0.00,30.0,28.9,00.0,38.8,31.9,21.9,0000.0,0003.95,0007.30,0003.47
2022-07-05 12:57:00,,0826.6,4.99,0.00,30.1,29.0,00.0,38.8,32.0,21.8,0000.0,0003.94,0007.14,0003.49
2022-07-05 12:58:00,,0826.5,5.00,0.00,30.1,29.0,00.0,38.8,32.0,22.0,0000.0,0003.92,0007.10,0003.48
2022-07-05 12:59:00,,0826.5,5.00,0.00,30.1,29.1,00.0,38.8,32.0,22.5,0000.0,0003.90,0007.04,0003.47
